{"data":{"norad_id":65142,"intl_designator":"2025-171L","name":"KUIPER-00104","alt_names":[],"object_type":"PAYLOAD","status":"ACTIVE","operator":null,"country":"US","launch_date":"2025-08-11","launch_site_code":"AFETR","launch_vehicle":null,"mission":null,"orbit_class":"UNKNOWN","rcs_meters":null,"size_class":null,"mass_kg":null,"dimensions":null,"purposes":[],"wikipedia_slug":null,"has_3d_model":false,"image_url":null,"decayed_at":null,"tle_current":{"epoch":"2026-05-25T02:05:53.202048Z","epoch_age_seconds":81644,"freshness":"FRESH","line1":"1 65142U 25171L   26145.08742132 -.00000405  00000+0 -24081-4 0  9998","line2":"2 65142  51.8982 180.2148 0000329  73.1501 286.9498 14.79932691 44205","mean_motion":14.79932691,"eccentricity":3.29e-5,"inclination_deg":51.8982,"raan_deg":180.2148,"arg_perigee_deg":73.1501,"mean_anomaly_deg":286.9498,"bstar":-2.4081e-5,"rev_number":4420,"period_min":97.301722487594,"perigee_km":629.30605215,"apogee_km":629.76715707318,"semimajor_km":7007.6736046116,"source":"CELESTRAK","updated_at":"2026-05-25T13:38:05.167491Z"}}}